Satellite: NOAA-14
Catalog number: 23455
Epoch time: 08156.80866266
Element set: 0170
Inclination: 098.9472 deg
RA of node: 229.0436 deg
Eccentricity: 0.0009637
Arg of perigee: 174.1749 deg
Mean anomaly: 185.9516 deg
Mean motion: 14.13743774 rev/day
Decay rate: 1.16e-06 rev/day^2
Epoch rev: 69260
Checksum: 334
Satellite: SICH-1
Catalog number: 23657
Epoch time: 08156.72104670
Element set: 0404
Inclination: 082.5272 deg
RA of node: 107.6856 deg
Eccentricity: 0.0024331
Arg of perigee: 156.6573 deg
Mean anomaly: 203.5749 deg
Mean motion: 14.81583040 rev/day
Decay rate: 2.37e-06 rev/day^2
Epoch rev: 68837
Checksum: 302
Satellite: NOAA-15
Catalog number: 25338
Epoch time: 08156.64589956
Element set: 0492
Inclination: 098.5522 deg
RA of node: 148.8234 deg
Eccentricity: 0.0011846
Arg of perigee: 079.3468 deg
Mean anomaly: 280.9028 deg
Mean motion: 14.24705856 rev/day
Decay rate: 1.91e-06 rev/day^2
Epoch rev: 52301
Checksum: 335
Satellite: RESURS
Catalog number: 25394
Epoch time: 08157.79757130
Element set: 943
Inclination: 098.3891 deg
RA of node: 202.2759 deg
Eccentricity: 0.0000580
Arg of perigee: 207.6686 deg
Mean anomaly: 152.4457 deg
Mean motion: 14.24160909 rev/day
Decay rate: -5.0e-08 rev/day^2
Epoch rev: 51482
Checksum: 313
Satellite: FENGYUN1
Catalog number: 25730
Epoch time: 08157.82703973
Element set: 453
Inclination: 098.7235 deg
RA of node: 133.9994 deg
Eccentricity: 0.0019011
Arg of perigee: 200.2121 deg
Mean anomaly: 159.8297 deg
Mean motion: 14.07686746 rev/day
Decay rate: 2.0e-08 rev/day^2
Epoch rev: 46736
Checksum: 311
Satellite: OKEAN-0
Catalog number: 25860
Epoch time: 08157.57253979
Element set: 384
Inclination: 097.7489 deg
RA of node: 148.6343 deg
Eccentricity: 0.0001116
Arg of perigee: 036.5769 deg
Mean anomaly: 323.5518 deg
Mean motion: 14.73524047 rev/day
Decay rate: 4.5e-07 rev/day^2
Epoch rev: 47768
Checksum: 338
Satellite: NOAA-16
Catalog number: 26536
Epoch time: 08156.66913288
Element set: 0961
Inclination: 099.1548 deg
RA of node: 145.5705 deg
Eccentricity: 0.0009495
Arg of perigee: 260.6298 deg
Mean anomaly: 099.3785 deg
Mean motion: 14.12484124 rev/day
Decay rate: 2.64e-06 rev/day^2
Epoch rev: 39700
Checksum: 344
Satellite: NOAA-17
Catalog number: 27453
Epoch time: 08156.82615699
Element set: 0954
Inclination: 098.5349 deg
RA of node: 221.8097 deg
Eccentricity: 0.0012581
Arg of perigee: 140.6688 deg
Mean anomaly: 219.5389 deg
Mean motion: 14.23977822 rev/day
Decay rate: -1.5e-07 rev/day^2
Epoch rev: 30904
Checksum: 346
Satellite: NOAA-18
Catalog number: 28654
Epoch time: 08156.85756600
Element set: 0455
Inclination: 098.8674 deg
RA of node: 097.9398 deg
Eccentricity: 0.0014421
Arg of perigee: 353.3556 deg
Mean anomaly: 006.7418 deg
Mean motion: 14.11166439 rev/day
Decay rate: -2.29e-06 rev/day^2
Epoch rev: 15673
Checksum: 342
/EX
SB KEPS @ AMSAT $ORB08157.M
Orbital Elements 08157.MISC
HR AMSAT ORBITAL ELEMENTS FOR MANNED AND MISCELLANEOUS SATELLITES
FROM WA5QGD FORT WORTH,TX June 5, 2008
Send Subscribe/unsubscribe to KEPS at
http://www.amsat.org/mailman/listinfo/keps
BID: ORB08157.M
TO ALL RADIO AMATEURS BT
Satellite: HUBBLE
Catalog number: 20580
Epoch time: 08157.76946245
Element set: 151
Inclination: 028.4684 deg
RA of node: 037.7000 deg
Eccentricity: 0.0003854
Arg of perigee: 258.7276 deg
Mean anomaly: 101.2876 deg
Mean motion: 15.00383659 rev/day
Decay rate: 2.75e-06 rev/day^2
Epoch rev: 79326
Checksum: 307
Satellite: PO-34
Catalog number: 25520
Epoch time: 08156.63270833
Element set: 0016
Inclination: 028.4599 deg
RA of node: 262.8316 deg
Eccentricity: 0.0005665
Arg of perigee: 149.6295 deg
Mean anomaly: 210.4629 deg
Mean motion: 15.17198198 rev/day
Decay rate: 4.04e-06 rev/day^2
Epoch rev: 53125
Checksum: 311
Satellite: ISS
Catalog number: 25544
Epoch time: 08157.76236047
Element set: 609
Inclination: 051.6386 deg
RA of node: 075.2833 deg
Eccentricity: 0.0005530
Arg of perigee: 301.8321 deg
Mean anomaly: 149.6097 deg
Mean motion: 15.76721294 rev/day
Decay rate: -9.15e-06 rev/day^2
Epoch rev: 54672
Checksum: 308
Satellite: CO-58
Catalog number: 28895
Epoch time: 08156.71305548
Element set: 37
Inclination: 098.1006 deg
RA of node: 051.0066 deg
Eccentricity: 0.0018991
Arg of perigee: 088.1849 deg
Mean anomaly: 272.1543 deg
Mean motion: 14.59672881 rev/day
Decay rate: 3.5e-07 rev/day^2
Epoch rev: 13866
Checksum: 334
Satellite: NCUBE2
Catalog number: 28897
Epoch time: 08156.67904078
Element set: 0569
Inclination: 098.0987 deg
RA of node: 050.9042 deg
Eccentricity: 0.0018358
Arg of perigee: 088.9313 deg
Mean anomaly: 271.3987 deg
Mean motion: 14.59843667 rev/day
Decay rate: 9.8e-07 rev/day^2
Epoch rev: 13094
Checksum: 369
Satellite: FCAL
Catalog number: 29667
Epoch time: 08146.34060426
Element set: 979
Inclination: 051.6107 deg
RA of node: 065.3702 deg
Eccentricity: 0.0009039
Arg of perigee: 260.8350 deg
Mean anomaly: 099.5042 deg
Mean motion: 16.53464210 rev/day
Decay rate: 1.1864717e-01 rev/day^2
Epoch rev: 8291
Checksum: 307
Satellite: FALCON
Catalog number: 30776
Epoch time: 08156.55454858
Element set: 0338
Inclination: 035.4342 deg
RA of node: 230.1094 deg
Eccentricity: 0.0001758
Arg of perigee: 293.1598 deg
Mean anomaly: 066.8933 deg
Mean motion: 15.02999083 rev/day
Decay rate: 3.37e-06 rev/day^2
Epoch rev: 06824
Checksum: 322
Satellite: MAST
Catalog number: 31126
Epoch time: 08156.71178227
Element set: 0343
Inclination: 098.0391 deg
RA of node: 221.6421 deg
Eccentricity: 0.0095180
Arg of perigee: 011.2900 deg
Mean anomaly: 349.0417 deg
Mean motion: 14.53426548 rev/day
Decay rate: 8.9e-07 rev/day^2
Epoch rev: 06020
Checksum: 267
Satellite: CAPE1
Catalog number: 31130
Epoch time: 08157.75264017
Element set: 323
Inclination: 098.0404 deg
RA of node: 221.6786 deg
Eccentricity: 0.0102982
Arg of perigee: 011.0458 deg
Mean anomaly: 349.2965 deg
Mean motion: 14.51966185 rev/day
Decay rate: -9.9e-07 rev/day^2
Epoch rev: 6006
Checksum: 293
Satellite: CUTE1-7
Catalog number: 32785
Epoch time: 08157.70410767
Element set: 68
Inclination: 097.9934 deg
RA of node: 217.6509 deg
Eccentricity: 0.0014940
Arg of perigee: 169.1688 deg
Mean anomaly: 190.9839 deg
Mean motion: 14.81363619 rev/day
Decay rate: 6.2e-07 rev/day^2
Epoch rev: 570
Checksum: 340
Satellite: COMPASS
Catalog number: 32787
Epoch time: 08156.68969111
Element set: 0059
Inclination: 097.9890 deg
RA of node: 216.6180 deg
Eccentricity: 0.0015835
Arg of perigee: 174.1279 deg
Mean anomaly: 186.0105 deg
Mean motion: 14.81415352 rev/day
Decay rate: 2.54e-06 rev/day^2
Epoch rev: 00555
Checksum: 311
Satellite: AAUSAT2
Catalog number: 32788
Epoch time: 08156.14666023
Element set: 0072
Inclination: 097.9910 deg
RA of node: 216.0845 deg
Eccentricity: 0.0015563
Arg of perigee: 174.7141 deg
Mean anomaly: 185.4263 deg
Mean motion: 14.81524330 rev/day
Decay rate: 4.11e-06 rev/day^2
Epoch rev: 00547
Checksum: 284
Satellite: DO-64
Catalog number: 32789
Epoch time: 08156.69033264
Element set: 0068
Inclination: 097.9909 deg
RA of node: 216.6323 deg
Eccentricity: 0.0015805
Arg of perigee: 173.2246 deg
Mean anomaly: 186.9164 deg
Mean motion: 14.81398346 rev/day
Decay rate: 4.78e-06 rev/day^2
Epoch rev: 00555
Checksum: 342
Satellite: SEEDS
Catalog number: 32791
Epoch time: 08157.70645534
Element set: 56
Inclination: 097.9932 deg
RA of node: 217.6392 deg
Eccentricity: 0.0016110
Arg of perigee: 168.2632 deg
Mean anomaly: 191.8950 deg
Mean motion: 14.81275263 rev/day
Decay rate: 1.5e-07 rev/day^2
Epoch rev: 567
Checksum: 300
Satellite: CANX-2
Catalog number: 32797
Epoch time: 08156.69101283
Element set: 0038
Inclination: 097.9927 deg
RA of node: 216.6372 deg
Eccentricity: 0.0015700
Arg of perigee: 171.8940 deg
Mean anomaly: 188.2538 deg
Mean motion: 14.81359628 rev/day
Decay rate: 2.25e-06 rev/day^2
Epoch rev: 00423
Checksum: 314
/EX
More information about the Keps
mailing list